Regional Weather Roundup
Issued by NWS

Home | Current Version | Previous Version | Text Only | Print | Product List | Glossary Off
Versions: 1 2 3 4 5 6 7 8 9 10 11 12 13 14 15 16 17 18 19 20 21 22 23 24 25 26 27 28 29 30 31 32 33 34 35 36 37 38 39 40 41 42 43 44 45 46 47 48 49 50

000
ASUS43 KMPX 250901
RWRMN
WEATHER ROUNDUP FOR MINNESOTA
NATIONAL WEATHER SERVICE TWIN CITIES/CHANHASSEN MN
300 AM CST THU DEC 25 2014


NOTE: "FAIR" INDICATES FEW OR NO CLOUDS BELOW 12,000 FEET WITH NO
SIGNIFICANT WEATHER AND/OR OBSTRUCTIONS TO VISIBILITY. N/A MEANS
CURRENT SKY AND/OR WEATHER CONDITIONS ARE NOT AVAILABLE.

MNZ060>063-068>070-251000-
   Twin Cities Metro

CITY           SKY/WX    TMP DP  RH WIND       PRES   REMARKS
TWIN CITIES    CLOUDY    30  25  81 SW10      29.63R WCI  21
ST PAUL        CLOUDY    31  27  85 SW10      29.65R WCI  22
CRYSTAL        CLOUDY    31  27  85 SW7       29.61R WCI  24
BLAINE         CLOUDY    32  30  93 S8        29.61R WCI  25
LAKEVILLE      MOCLDY    28  27  93 SW3       29.63R
EDEN PRAIRIE   CLOUDY    30  26  85 SW8       29.61R WCI  22
SOUTH ST PAUL  CLOUDY    31  28  87 SW10      29.64R WCI  22
LAKE ELMO      CLOUDY    32  30  93 SW10      29.63R WCI  24
$$
MNZ001>005-007-008-013>017-022>024-027-028-251000-
   Northwest Minnesota

CITY           SKY/WX    TMP DP  RH WIND       PRES   REMARKS
BEMIDJI        CLOUDY    29  26  89 SW9       29.47R WCI  20
HALLOCK        CLOUDY    30  27  86 W9        29.47R WCI  22
ROSEAU         CLOUDY    30  27  86 SW8       29.44R WCI  23
WARROAD        CLOUDY    28  25  86 SW7       29.43R WCI  21
THIEF RVR FALL CLOUDY    28  27  93 SW9       29.46R WCI  20
CROOKSTON      CLOUDY    28  27  93 NW10      29.50R WCI  19
FOSSTON        CLOUDY    27  27 100 SW12      29.48R WCI  16
DETROIT LAKES  CLOUDY    30  28  93 SW9       29.51R WCI  22
MOORHEAD       MOCLDY    28  28 100 S6        29.53R WCI  22
PARK RAPIDS    CLOUDY    30  26  85 SW14      29.48R WCI  19
MAHNOMEN       CLOUDY    28  27  95 SW12      29.48R WCI  18
$$
MNZ006-009>011-018-025>026-251000-
   North Central Minnesota

CITY           SKY/WX    TMP DP  RH WIND       PRES   REMARKS
BAUDETTE       CLOUDY    29  26  89 SW8       29.43R WCI  21
FLAG ISLAND    CLOUDY    28  27  93 SW8       29.41R FOG     WCI  20
INTL FALLS     CLOUDY    30  26  85 W8        29.43S WCI  22
WASKISH        CLOUDY    30  27  86 SW9       29.45R WCI  22
BIG FORK       CLOUDY    30  27  86 SW7       29.47R WCI  23
LONGVILLE      CLOUDY    30  27  86 SW5       29.49R WCI  25
GRAND RAPIDS   CLOUDY    30  25  80 SW5       29.48R WCI  25
CRANE LAKE     CLOUDY    28  28 100 CALM      29.47R
ORR            CLOUDY    30  27  86 SW3       29.43S
COOK           CLOUDY    30  28  93 SW7       29.46R WCI  23
WALKER         CLOUDY    29  25  86 W9        29.48R WCI  20
$$
MNZ012-019>021-037-251000-
   Northeast Minnesota

CITY           SKY/WX    TMP DP  RH WIND       PRES   REMARKS
DULUTH         CLOUDY    31  27  85 SW12      29.49R WCI  22
ELY            CLOUDY    30  28  93 SW6       29.45S WCI  24
HIBBING        CLOUDY    31  27  85 SW6       29.47R WCI  25
EVELETH        CLOUDY    32  30  93 SW8       29.48S WCI  25
DULUTH HARBOR  CLOUDY    34  28  80 SW12      29.54S WCI  25
TWO HARBORS    CLOUDY    36  30  80 SW6       29.48S
SILVER BAY     CLOUDY    34  30  86 S5        29.47S WCI  30
GRAND MARAIS     N/A     33  31  92 W5        29.49R WCI  29
G MARAIS ARPRT CLOUDY    27  25  93 CALM      29.44S
$$
MNZ029>031-032-039>041-046>048-054>057-064-251000-
   West Central Minnesota

CITY           SKY/WX    TMP DP  RH WIND       PRES   REMARKS
FERGUS FALLS   CLOUDY    28  28 100 SW9       29.56R FOG     WCI  20
WHEATON        CLOUDY    28  27  93 S5        29.57R WCI  23
MORRIS         CLOUDY    28  27  93 S7        29.53S WCI  21
ALEXANDRIA     MOCLDY    28  25  88 SW10      29.54R FOG     WCI  19
ELBOW LAKE     CLOUDY    28  27  96 S8        29.54R WCI  20
WADENA         CLOUDY    28  27  93 SW9       29.51R WCI  20
GLENWOOD       MOCLDY    28  27  93 S10       29.54S WCI  19
APPLETON       CLOUDY    30  27  86 S6        29.56R WCI  24
BENSON         CLOUDY    28  27  93 S7        29.56R WCI  21
ORTONVILLE     CLOUDY    28  25  86 S3        29.54S
MADISON          N/A     32  30  93 S3        29.56R
WILLMAR        FAIR      30  27  86 S5        29.58S WCI  25
$$
MNZ033>034-036-042>043-049>051-058-059-251000-
   Central Minnesota

CITY           SKY/WX    TMP DP  RH WIND       PRES   REMARKS
ST CLOUD       CLOUDY    32  27  81 S9        29.57S WCI  24
SAUK CENTRE    CLOUDY    28  26  92 S9        29.55S WCI  20
PAYNESVILLE    CLOUDY    27  26  96 SE7       29.57S WCI  19
AITKIN         CLOUDY    34  27  75 S8        29.50S WCI  27
PINE RIVER     CLOUDY    30  27  86 S7        29.54S WCI  23
BRAINERD       CLOUDY    30  27  88 S13       29.53R WCI  20
STAPLES        LGT SNOW  28  27  93 SW9       29.52R WCI  20
LONG PRAIRIE   CLOUDY    28  27  93 W9        29.54S WCI  20
LITTLE FALLS   CLOUDY    30  27  86 S6        29.56R WCI  24
LITCHFIELD     CLOUDY    30  28  93 CALM      29.58S
BUFFALO        CLOUDY    30  27  88 S6        29.61R WCI  24
MAPLE LAKE     CLOUDY    31  29  92 S5        29.59S WCI  26
$$
MNZ037-044-045-052-053-251000-
   East Central Minnesota

CITY           SKY/WX    TMP DP  RH WIND       PRES   REMARKS
PRINCETON      CLOUDY    32  28  86 S9        29.58S WCI  24
MORA           CLOUDY    32  28  86 SW8       29.58R WCI  25
CAMBRIDGE      CLOUDY    34  25  69 S9        29.57R WCI  26
RUSH CITY      CLOUDY    32  29  89 SW8       29.59R WCI  24
MOOSE LAKE     CLOUDY    32  28  86 SW9       29.52S WCI  24
HINCKLEY       CLOUDY    32  30  93 CALM      29.57R
CLOQUET        CLOUDY    30  27  86 SW7       29.51S WCI  23
MCGREGOR       CLOUDY    32  28  86 S10       29.51S WCI  24
$$
MNZ071>073-080-081-089-090-097-098-251000-
   Southwest Minnesota

CITY           SKY/WX    TMP DP  RH WIND       PRES   REMARKS
MONTEVIDEO     CLOUDY    28  28 100 SW7       29.58R WCI  21
GRANITE FALLS  CLOUDY    29  26  92 S8        29.59S WCI  21
CANBY          CLOUDY    30  26  86 S5        29.57R WCI  25
MARSHALL       CLOUDY    28  25  86 SW13G20   29.56R WCI  18
REDWOOD FALLS  CLOUDY    29  26  89 S12       29.59R WCI  19
OLIVIA         CLOUDY    28  27  93 S9        29.58R WCI  20
PIPESTONE      FAIR      27  27 100 S7        29.54S WCI  19
WINDOM         CLOUDY    28  27  93 S9        29.58S WCI  20
WORTHINGTON    CLOUDY    27 -20  12 S8        29.57F WCI  18
JACKSON        CLOUDY    30  28  93 S16       29.60R WCI  19
TRACY          CLOUDY    29  28  94 SW18G25   29.56R WCI  17
SLAYTON        CLOUDY    28  27  96 S12       29.56S WCI  17
$$
MNZ065>067-074>077-082>085-091>093-251000-
   South Central Minnesota

CITY           SKY/WX    TMP DP  RH WIND       PRES   REMARKS
MANKATO        CLOUDY    28  23  80 S12       29.63R WCI  18
NEW ULM        MOCLDY    28  27  93 S10       29.61R WCI  19
ST JAMES       CLOUDY    28  27  93 S12       29.63R WCI  18
FAIRMONT       CLOUDY    28  25  86 S17       29.62R WCI  16
GLENCOE        MOCLDY    30  29  94 S7        29.60S WCI  24
FARIBAULT      CLOUDY    28  27  93 S8G16     29.64R WCI  20
OWATONNA       MOCLDY    28  27  93 S13       29.65R WCI  18
ALBERT LEA     CLOUDY    27  27 100 SW9G22    29.66R WCI  17
$$
MNZ078>079-086>088-094>096-251000-
   Southeast Minnesota

CITY           SKY/WX    TMP DP  RH WIND       PRES   REMARKS
ROCHESTER      CLOUDY    27  25  92 SW14      29.66R WCI  16
RED WING       CLOUDY    30  28  93 W9        29.64R WCI  22
STANTON        CLOUDY    31  28  86 SW14      29.63R WCI  21
DODGE CENTER   CLOUDY    27  27 100 SW12      29.64R WCI  16
WINONA         CLOUDY    34  30  86 SW5       29.68R WCI  30
AUSTIN         CLOUDY    27  27 100 SW10      29.67R FOG     WCI  17
PRESTON        CLOUDY    27  26  96 SW12      29.68R WCI  16
$$
ABBREVIATIONS USED IN REMARKS
   TC - TEMPERATURES IN CELSIUS
  WCI - WIND CHILL INDEX
   HX - HEAT INDEX
  VSB - VISIBILITY
$$



USA.gov is the U.S. government's official web portal to all federal, state and local government web resources and services.